Regional Weather Roundup
Issued by NWS Raleigh/Durham, NC

Home | Current Version | Previous Version | Text Only | Print | Product List | Glossary On
Versions: 1 2 3 4 5 6 7 8 9 10 11 12 13 14 15 16 17 18 19 20 21 22 23 24 25 26 27 28 29 30 31 32 33 34 35 36 37 38 39 40 41 42 43 44 45 46 47 48 49 50
000
ASUS42 KRAH 210910
RWRRAH
NORTH CAROLINA WEATHER ROUNDUP
NATIONAL WEATHER SERVICE RALEIGH NC
400 AM EST WED FEB 21 2018

NOTE: "FAIR" INDICATES FEW OR NO CLOUDS BELOW 12,000 FEET WITH NO
SIGNIFICANT WEATHER AND/OR OBSTRUCTIONS TO VISIBILITY.

NCZ001-053-055-056-065-067-211000-
WESTERN NORTH CAROLINA

CITY           SKY/WX    TMP DP  RH WIND       PRES   REMARKS
ASHEVILLE      CLOUDY    61  59  93 CALM      30.41F
JEFFERSON      CLOUDY    57  55  94 S5        30.41S
MORGANTON      DRIZZLE   58  58 100 CALM      30.44S
HICKORY        CLOUDY    60  60 100 S3        30.40F FOG
RUTHERFORDTON  DRIZZLE   60  60 100 S3        30.41S
MOUNT AIRY     FOG       54  51  88 CALM      30.43S VSB 1
BOONE          DRIZZLE   57  57  99 CALM      30.44F
$$

NCZ021-022-025-041-071-084-088-211000-
CENTRAL NORTH CAROLINA

CITY           SKY/WX    TMP DP  RH WIND       PRES   REMARKS
CHARLOTTE      CLOUDY    66  65  96 S10       30.42S
GREENSBORO     CLOUDY    63  63 100 SW12      30.41R
WINSTON-SALEM  CLOUDY    61  60  97 S5        30.42S
RALEIGH-DURHAM CLOUDY    63  63 100 SW10      30.44S
FORT BRAGG     CLOUDY    64  64 100 S5        30.43R FOG
FAYETTEVILLE   FOG       62  62 100 SW3       30.44R VSB 1/4
BURLINGTON     CLOUDY    65  64  97 S6        30.42R
LAURINBURG     FOG       64  64 100 SW3       30.45R VSB 3/4
$$

NCZ011-015-027-028-043-044-047-080-103-211000-
NORTHEASTERN NORTH CAROLINA

CITY           SKY/WX    TMP DP  RH WIND       PRES   REMARKS
ROCKY MT-WILSO CLOUDY    63  63 100 S7        30.44R FOG
GREENVILLE     CLOUDY    64  64 100 S7        30.44S FOG
WASHINGTON     FOG       63  62  97 S3        30.45S VSB 3/4
ELIZABETH CITY MOCLDY    64  64 100 S7        30.45S
MANTEO         FOG       57  57 100 S7        30.47S VSB 3/4
CAPE HATTERAS  CLOUDY    64  63  96 S3        30.47F FOG
$$

NCZ078-087-090-091-093-098-101-211000-
SOUTHEASTERN NORTH CAROLINA

CITY           SKY/WX    TMP DP  RH WIND       PRES   REMARKS
LUMBERTON      FOG       64  64 100 S5        30.43S VSB 3/4
GOLDSBORO      FAIR      63  61  94 CALM      30.43R FOG
KINSTON        CLOUDY    64  64 100 S6        30.45S FOG
KENANSVILLE    FOG       63  63 100 SE3       30.44S VSB 1/4
NEW BERN       FAIR      63  63 100 S3        30.46F FOG
CHERRY POINT   NOT AVBL
BEAUFORT       FAIR      64  63  96 S6        30.46S
JACKSONVILLE   FAIR      65  64  97 S3        30.45S
WILMINGTON     FOG       58  58 100 CALM      30.45S VSB 1/4
$$




USA.gov is the U.S. government's official web portal to all federal, state and local government web resources and services.